Volver al catálogo

STARLINK-11379

ActivoComunicacionesVLEO
NORAD 62089·PAYLOAD·🇺🇸 United States

Lanzado Nov 25, 2024 desde Cape Canaveral Space Force Station

Loading…

Próximos Pases (próximas 24 horas)

TLE

ActualizadoSource: CelesTrak SupGP

Época: Sep 15, 2026, 03:09 UTC

1 62089C 24220B   26258.13173611  .00018917  00000+0  14700-3 0  2589
2 62089  43.0001 341.4777 0001749 256.9063 121.5714 15.70816708    15

Sigue STARLINK-11379 en tiempo real con AllMySat

Download on the App Store